Wind_Speed
31 32 32 28 23 16 27 32 14 12 2 14 6 16 9 11 12 11 12 12 10 8 15 20 18 19 19 16 16 16 16 15 12 10 8 7 5 4 6 7 12 14 15 17
34 38 26 27 27 19 24 27 9 9 14 13 12 12 17 7 9 10 12 12 8 6 16 18 19 20 19 20 19 18 17 15 12 10 8 6 4 5 6 7 11 14 17 19
37 29 27 28 32 23 21 24 4 6 17 9 15 5 23 19 12 5 11 8 7 9 17 18 19 20 22 21 21 20 18 15 12 9 8 5 3 5 4 8 12 14 17 18
40 30 32 31 32 25 23 18 11 14 10 8 15 6 18 20 10 10 3 7 5 5 10 16 20 21 22 23 23 21 19 15 12 10 7 6 4 4 5 8 12 14 15 17
43 38 37 35 30 28 25 18 20 18 20 15 17 18 14 16 22 9 8 4 5 5 9 14 18 22 23 23 24 22 18 15 12 9 7 6 4 5 5 8 11 13 16 19
45 41 40 34 31 27 26 22 20 21 18 21 16 18 16 23 18 10 10 7 8 8 11 16 20 24 22 25 25 21 18 15 11 10 8 7 6 5 6 8 10 12 15 17
47 48 40 37 32 29 26 26 24 26 18 21 16 19 23 30 29 24 9 12 11 11 13 16 20 23 22 24 24 20 17 14 12 10 8 9 7 6 6 7 9 12 12 14
48 49 49 40 38 33 32 30 31 26 20 17 26 21 27 31 33 17 12 13 15 14 15 17 24 27 25 26 25 21 17 14 11 9 8 9 9 7 6 7 7 9 9 10
46 47 36 46 35 37 36 37 32 27 23 28 28 25 25 12 10 12 8 13 16 16 17 18 24 29 28 29 25 20 17 14 11 9 9 10 9 9 7 6 6 6 7 7
47 40 42 32 41 35 38 30 36 36 34 36 34 26 29 16 6 7 16 14 17 18 18 17 21 32 30 30 25 21 16 15 12 10 10 10 10 10 8 6 5 4 6 8
47 48 37 31 39 44 40 42 37 33 32 31 30 31 23 25 17 17 25 20 15 19 20 19 22 30 31 28 22 18 15 14 11 9 9 10 10 10 10 8 5 4 6 8
48 48 48 33 34 38 41 42 40 37 38 34 30 34 35 32 28 29 28 23 17 22 25 23 24 28 30 27 23 18 15 14 13 11 10 10 11 10 10 9 6 4 4 7
59 60 54 34 32 38 46 41 43 34 31 34 25 25 31 42 14 22 27 23 22 24 28 27 27 28 29 28 24 20 17 16 14 11 10 10 11 9 9 8 6 3 3 7
66 60 63 46 36 36 40 43 44 39 38 30 28 24 20 27 19 17 27 16 22 24 28 28 27 28 28 28 24 22 19 17 16 14 12 12 13 10 8 5 3 0 4 9
65 61 61 60 38 33 39 38 42 42 41 34 23 25 34 38 23 20 16 14 22 23 28 30 28 28 28 27 24 22 20 18 17 15 14 14 15 10 5 2 2 3 7 13
66 64 61 61 48 40 36 38 40 42 39 37 31 36 35 38 26 27 16 13 19 21 27 30 30 30 28 26 24 22 19 17 17 16 15 14 13 8 3 5 4 7 9 21
67 67 63 60 54 47 43 39 38 45 44 38 39 35 37 35 32 16 11 13 18 23 27 29 27 26 26 23 23 22 21 19 17 17 15 13 13 7 2 4 5 8 10 18
66 68 65 62 58 60 48 36 30 35 45 39 39 32 35 32 22 15 19 15 14 20 26 25 25 27 28 27 26 23 19 18 17 15 13 15 13 4 4 4 5 5 7 14
64 69 68 67 68 58 51 37 29 30 36 44 35 38 27 28 21 26 25 22 18 16 20 23 24 25 26 26 24 21 19 17 16 14 11 14 10 4 4 5 6 5 8 14
64 62 69 68 65 67 54 37 26 33 33 32 40 39 34 41 41 27 19 29 27 25 19 20 22 24 25 23 21 19 17 15 13 10 13 12 7 4 2 2 2 4 6 12
64 62 64 64 66 56 45 37 29 35 32 33 39 48 38 40 45 31 26 20 36 33 26 24 21 25 22 21 19 18 16 11 11 18 20 13 8 7 6 5 7 6 9 13
65 60 64 62 61 45 41 43 41 44 50 46 46 52 48 40 42 43 40 36 28 35 35 30 25 25 24 24 24 20 16 11 18 22 23 19 12 10 10 9 11 10 12 14
52 62 59 61 63 45 45 39 54 55 47 51 50 55 59 56 52 45 31 37 41 37 42 37 33 32 29 27 24 22 18 21 23 22 23 23 20 14 15 11 13 14 15 17
30 38 55 54 59 48 52 51 55 54 51 50 54 55 59 58 62 61 50 37 39 41 43 39 34 37 32 29 27 24 25 28 27 27 23 24 23 21 20 19 17 18 20 22
45 38 58 50 51 52 61 60 58 56 53 56 57 57 56 54 54 53 52 52 52 45 45 43 42 40 37 36 34 31 30 31 32 30 28 26 25 25 22 20 20 22 23 24
49 41 54 60 49 68 68 68 63 61 60 58 58 55 53 51 45 49 53 51 52 52 49 49 48 48 43 41 40 40 38 35 36 38 34 32 30 28 25 23 24 25 27 28
Wind_Direction
223 223 210 196 199 212 223 213 239 151 43 327 264 277 300 326 332 317 308 307 290 257 205 189 185 186 182 177 168 163 146 139 130 114 104 85 68 55 56 55 61 68 66 70
224 225 209 203 197 232 260 239 170 150 158 230 273 287 300 313 305 305 310 303 291 230 187 189 188 192 186 178 170 162 153 145 136 122 112 103 69 67 56 66 69 68 67 69
228 225 217 215 204 220 228 282 185 145 294 271 295 312 266 300 299 300 290 291 273 203 192 191 191 191 181 175 169 162 157 152 138 132 116 101 82 56 69 75 75 72 74 73
228 220 225 219 216 221 224 247 297 268 230 271 263 249 254 287 303 291 256 270 226 209 208 197 185 177 177 171 167 162 158 150 143 133 129 123 117 102 90 86 83 86 85 80
223 220 222 220 221 224 224 205 231 245 262 249 267 273 286 270 307 267 276 215 230 204 187 181 181 178 178 171 166 163 160 149 148 139 141 138 139 111 93 89 96 94 89 78
225 222 224 220 212 228 221 210 236 240 246 249 250 256 279 262 269 256 252 233 215 210 197 192 188 183 178 172 165 164 161 156 155 151 151 158 158 129 113 104 107 101 85 74
222 220 217 219 222 215 227 216 225 233 228 245 248 256 256 267 237 195 245 234 226 214 204 199 190 191 178 171 167 168 164 164 161 161 165 168 157 132 122 123 122 105 88 70
226 221 215 211 213 214 216 217 214 224 232 244 245 233 256 254 275 215 175 224 225 221 210 205 196 192 182 173 172 172 170 170 171 170 173 167 159 145 147 134 122 109 89 64
222 223 220 222 216 213 208 221 214 220 232 241 234 243 250 282 304 245 227 220 221 221 209 210 202 197 186 175 174 177 178 182 178 177 184 175 168 162 158 139 124 107 80 48
219 218 216 220 218 222 213 217 214 212 225 241 250 250 234 205 167 237 234 232 214 216 213 209 199 194 186 178 177 183 185 188 186 189 189 182 179 169 164 150 123 93 57 38
214 216 200 221 224 215 215 207 216 220 226 232 258 267 268 209 170 230 243 250 217 216 211 204 192 187 183 180 178 186 192 195 194 196 193 189 185 178 172 164 133 108 57 27
205 211 199 194 223 227 221 219 210 214 220 227 235 270 230 195 175 200 251 255 228 217 213 204 195 188 186 185 187 196 203 199 202 201 196 197 195 186 179 172 150 114 44 359
207 204 196 185 197 219 222 216 217 212 229 225 235 263 251 195 130 216 244 250 231 221 215 207 201 196 192 193 196 203 206 206 207 202 205 204 203 194 190 174 161 114 35 343
211 204 200 201 195 209 222 216 216 214 219 224 226 236 264 229 178 230 240 249 229 230 214 206 205 202 199 200 201 202 207 213 210 209 210 211 209 200 191 184 152 153 307 323
209 206 205 202 194 200 225 228 210 216 218 216 221 235 252 253 177 170 235 236 231 218 201 201 203 205 203 202 203 206 209 214 213 213 214 212 214 206 177 124 80 350 336 323
203 204 202 206 193 187 205 228 223 214 219 214 209 237 240 242 232 179 225 218 221 206 201 203 203 206 206 201 200 206 209 215 220 220 220 222 212 200 143 62 17 0 326 310
203 201 201 203 200 184 193 208 228 222 212 218 204 244 242 248 212 181 222 222 211 210 207 205 205 209 206 203 204 204 209 213 221 224 229 227 212 210 91 60 26 7 2 326
207 204 202 200 199 197 192 188 212 233 219 213 216 221 252 252 204 168 208 237 221 217 216 210 210 213 210 208 206 208 212 217 225 236 234 213 228 193 88 82 59 20 347 335
209 205 202 205 202 202 201 185 200 217 236 211 215 214 243 267 239 217 183 217 240 231 216 219 216 217 221 217 216 214 219 225 233 243 226 233 202 153 120 106 82 63 5 335
210 209 206 204 206 207 202 186 208 201 215 222 209 206 207 233 236 196 149 208 221 231 230 221 221 218 218 220 226 227 229 232 241 233 206 203 199 186 179 192 242 324 333 340
210 206 209 208 205 204 205 195 203 206 207 206 212 205 203 234 199 209 186 204 219 231 236 235 246 225 222 221 214 211 212 222 232 204 207 206 208 214 221 247 248 277 311 322
211 207 206 204 206 193 189 205 192 211 209 198 205 205 200 203 225 197 178 188 217 227 225 230 242 233 220 215 219 212 211 202 231 230 218 219 222 238 249 263 263 277 288 305
222 210 208 206 202 201 193 201 201 209 206 206 206 210 212 208 217 221 210 201 184 204 212 215 220 220 219 216 225 228 212 219 221 232 237 232 240 252 266 277 279 279 284 298
200 219 212 211 200 195 202 194 199 209 212 211 213 215 217 219 222 224 217 216 198 206 212 221 232 214 221 232 228 230 236 238 231 234 242 247 250 253 257 274 282 286 291 303
186 195 204 206 207 199 204 192 197 205 208 211 216 219 221 220 219 221 229 236 239 236 235 238 234 230 228 231 240 240 240 243 242 242 238 248 251 249 257 272 279 285 289 296
181 194 200 194 197 203 206 201 201 205 210 209 213 221 227 225 221 222 224 227 231 231 236 238 240 243 243 239 241 245 249 249 249 249 245 246 252 252 260 274 280 284 288 291
Height
5869 5871 5874 5883 5887 5890 5889 5892 5880 5893 5898 5902 5905 5901 5905 5902 5900 5903 5902 5900 5901 5900 5901 5905 5909 5913 5916 5920 5923 5927 5929 5931 5934 5936 5936 5937 5936 5936 5936 5935 5934 5934 5934 5932
5863 5861 5874 5879 5883 5888 5886 5887 5889 5892 5895 5906 5905 5902 5898 5903 5903 5902 5900 5900 5900 5899 5901 5904 5908 5912 5916 5919 5923 5927 5930 5933 5935 5937 5938 5938 5938 5938 5938 5937 5936 5935 5934 5933
5855 5865 5871 5873 5878 5883 5890 5885 5890 5894 5891 5901 5904 5905 5897 5900 5902 5901 5900 5900 5899 5899 5902 5904 5907 5911 5916 5919 5924 5927 5931 5934 5936 5938 5939 5940 5940 5940 5940 5939 5938 5937 5937 5936
5849 5861 5863 5868 5872 5878 5884 5890 5892 5894 5897 5902 5901 5906 5900 5898 5899 5898 5901 5899 5899 5899 5901 5904 5907 5912 5916 5919 5924 5928 5932 5935 5937 5939 5940 5941 5941 5941 5941 5941 5939 5939 5939 5939
5843 5851 5856 5860 5868 5874 5879 5888 5894 5897 5898 5899 5901 5901 5899 5897 5895 5898 5897 5899 5898 5900 5902 5905 5909 5912 5916 5920 5924 5929 5933 5935 5938 5939 5940 5941 5942 5942 5943 5942 5941 5942 5941 5941
5836 5845 5851 5857 5864 5871 5877 5882 5887 5893 5892 5895 5897 5900 5901 5891 5896 5896 5897 5898 5900 5901 5904 5906 5909 5913 5917 5921 5925 5930 5933 5935 5938 5940 5941 5942 5943 5943 5943 5943 5943 5943 5943 5942
5827 5834 5845 5852 5858 5866 5872 5878 5883 5887 5886 5891 5895 5897 5898 5891 5879 5885 5894 5897 5900 5901 5904 5907 5910 5914 5917 5922 5926 5930 5933 5935 5938 5940 5941 5942 5943 5943 5944 5944 5945 5944 5944 5943
5821 5827 5835 5843 5849 5860 5866 5872 5876 5881 5886 5890 5889 5891 5891 5887 5886 5864 5882 5895 5898 5900 5902 5905 5909 5912 5916 5921 5925 5929 5933 5936 5938 5940 5941 5942 5943 5944 5944 5945 5944 5944 5944 5943
5813 5821 5834 5840 5847 5853 5859 5863 5873 5878 5883 5884 5880 5884 5879 5880 5886 5890 5885 5892 5896 5898 5900 5903 5906 5911 5915 5919 5925 5929 5932 5935 5937 5940 5941 5942 5943 5944 5944 5944 5944 5944 5943 5942
5808 5816 5825 5834 5841 5845 5850 5862 5865 5867 5872 5876 5874 5876 5882 5880 5887 5892 5892 5890 5894 5896 5899 5902 5904 5909 5914 5919 5923 5928 5931 5934 5936 5939 5941 5942 5943 5943 5944 5944 5943 5943 5943 5942
5799 5805 5815 5828 5827 5836 5843 5847 5856 5865 5869 5872 5871 5869 5873 5880 5873 5894 5891 5887 5892 5895 5897 5900 5904 5908 5914 5918 5923 5927 5930 5933 5935 5938 5939 5941 5942 5942 5943 5943 5943 5943 5943 5942
5782 5795 5802 5811 5826 5830 5837 5842 5849 5855 5861 5866 5872 5868 5868 5869 5872 5883 5885 5886 5890 5892 5895 5899 5903 5908 5913 5918 5922 5926 5929 5932 5934 5936 5938 5939 5941 5941 5942 5942 5942 5942 5942 5941
5766 5779 5792 5803 5815 5824 5825 5835 5842 5851 5859 5861 5867 5866 5868 5864 5856 5874 5880 5883 5887 5889 5892 5897 5901 5907 5911 5915 5919 5923 5927 5930 5931 5934 5936 5938 5939 5940 5940 5940 5940 5940 5940 5939
5757 5771 5779 5795 5807 5821 5822 5827 5835 5844 5850 5858 5864 5868 5862 5862 5865 5873 5875 5879 5883 5885 5889 5894 5899 5905 5909 5913 5916 5920 5924 5927 5929 5931 5934 5936 5937 5938 5938 5938 5938 5938 5937 5938
5746 5763 5773 5787 5798 5812 5821 5821 5827 5835 5844 5850 5862 5867 5863 5861 5846 5865 5871 5874 5879 5881 5885 5891 5896 5901 5906 5910 5914 5918 5921 5925 5927 5929 5931 5933 5935 5936 5936 5936 5935 5935 5936 5936
5734 5751 5764 5778 5787 5798 5810 5818 5821 5828 5837 5845 5853 5852 5856 5858 5861 5858 5865 5870 5876 5879 5883 5888 5892 5897 5903 5907 5911 5915 5919 5922 5925 5926 5928 5930 5932 5934 5933 5932 5932 5933 5934 5932
5728 5743 5756 5770 5782 5789 5793 5809 5817 5822 5830 5839 5845 5845 5847 5849 5844 5855 5864 5868 5874 5877 5881 5885 5890 5896 5900 5904 5908 5912 5915 5918 5921 5923 5925 5928 5930 5930 5929 5929 5930 5931 5931 5929
5724 5738 5750 5760 5774 5774 5787 5802 5815 5818 5823 5833 5842 5849 5842 5846 5849 5857 5865 5866 5871 5876 5880 5884 5887 5892 5896 5900 5903 5907 5911 5915 5917 5920 5922 5925 5927 5926 5925 5927 5927 5928 5929 5928
5718 5728 5740 5750 5762 5775 5785 5796 5807 5815 5818 5825 5835 5843 5842 5833 5843 5849 5856 5867 5869 5873 5877 5881 5885 5889 5894 5898 5901 5904 5907 5911 5914 5916 5919 5922 5923 5922 5923 5924 5925 5925 5926 5926
5709 5720 5730 5742 5754 5764 5780 5792 5801 5807 5811 5820 5827 5834 5841 5842 5837 5845 5843 5865 5868 5871 5873 5877 5882 5886 5889 5894 5898 5902 5904 5907 5910 5912 5917 5919 5919 5919 5920 5920 5921 5922 5922 5922
5698 5708 5720 5734 5745 5761 5777 5785 5794 5798 5807 5807 5810 5821 5831 5827 5833 5840 5848 5861 5863 5868 5871 5874 5877 5882 5886 5889 5893 5897 5900 5904 5907 5910 5913 5915 5916 5916 5917 5917 5918 5918 5918 5917
5692 5703 5713 5728 5741 5756 5759 5768 5777 5777 5782 5792 5799 5806 5814 5824 5820 5827 5824 5839 5857 5860 5866 5870 5873 5878 5882 5885 5889 5893 5897 5902 5903 5905 5907 5910 5912 5913 5913 5913 5913 5913 5913 5912
5687 5696 5709 5720 5734 5743 5753 5758 5762 5763 5777 5787 5793 5800 5807 5815 5817 5821 5824 5836 5835 5847 5855 5863 5867 5872 5875 5881 5884 5888 5893 5895 5898 5900 5903 5905 5906 5907 5908 5909 5909 5908 5907 5907
5683 5691 5701 5714 5726 5732 5730 5741 5752 5760 5770 5777 5782 5791 5800 5808 5814 5818 5826 5832 5832 5840 5847 5854 5861 5866 5871 5874 5880 5884 5887 5889 5892 5895 5897 5899 5901 5902 5903 5903 5903 5902 5901 5900
5664 5675 5687 5703 5709 5713 5716 5733 5742 5750 5759 5764 5775 5783 5791 5801 5806 5815 5822 5828 5834 5840 5844 5850 5854 5859 5865 5869 5872 5877 5880 5882 5885 5888 5891 5892 5894 5895 5897 5897 5896 5895 5895 5894
5662 5669 5675 5681 5692 5699 5712 5730 5735 5743 5746 5756 5766 5773 5781 5790 5797 5804 5812 5819 5824 5831 5838 5842 5847 5851 5857 5861 5866 5870 5873 5875 5878 5880 5882 5885 5887 5888 5889 5890 5890 5889 5889 5888